When you browse on this site, cookies collect data to enhance your experience and personalize the content and advertising you see.
Visit our Privacy Policy to learn more. By continuing to use the site, you agree to this use of cookies and data.
  • In United Kingdom
  • List of Countries
  • For 7 days
  • Water Temperature
  • Satellite Maps
  • Weather Map
  • Weather Widgets
  • user-avatar
    Login

    Hourly Weather Newport

    Today, 25 April, Thursday

    Time Temperature Precipitation Wind Pressure Humidity
    00:00 +7°C° 0 mm 6 mps 743 mmHg 93%
    01:00 +7°C° 0 mm 6 mps 743 mmHg 93%
    02:00 +7°C° 0 mm 6 mps 742 mmHg 93%
    03:00 +6°C° 0 mm 7 mps 742 mmHg 93%
    04:00 +8°C° 0.2 mm 7 mps 741 mmHg 93%
    05:00 +8°C° 0.2 mm 7 mps 741 mmHg 93%
    06:00 +9°C° 0.2 mm 7 mps 741 mmHg 93%
    07:00 +9°C° 0.2 mm 7 mps 742 mmHg 90%
    08:00 +10°C° 0.2 mm 7 mps 742 mmHg 88%
    09:00 +10°C° 0.2 mm 7 mps 742 mmHg 85%
    10:00 +11°C° 0.3 mm 7 mps 743 mmHg 81%
    11:00 +11°C° 0.3 mm 6 mps 743 mmHg 77%
    12:00 +13°C° 0.3 mm 6 mps 744 mmHg 73%
    13:00 +13°C° 0.4 mm 6 mps 744 mmHg 73%
    14:00 +11°C° 0.4 mm 7 mps 744 mmHg 73%
    15:00 +11°C° 0.4 mm 7 mps 745 mmHg 73%
    16:00 +11°C° 0.2 mm 6 mps 745 mmHg 75%
    17:00 +10°C° 0.2 mm 6 mps 746 mmHg 77%
    18:00 +10°C° 0.2 mm 6 mps 747 mmHg 80%
    19:00 +9°C° 0.1 mm 6 mps 747 mmHg 82%
    20:00 +8°C° 0.1 mm 7 mps 748 mmHg 84%
    21:00 +8°C° 0.1 mm 7 mps 748 mmHg 87%
    22:00 +7°C° 1.6 mm 8 mps 749 mmHg 89%
    23:00 +7°C° 1.6 mm 8 mps 749 mmHg 91%

    Tomorrow, 26 April, Friday

    Time Temperature Precipitation Wind Pressure Humidity
    00:00 +7°C° 1.6 mm 8 mps 750 mmHg 93%
    01:00 +7°C° 0.9 mm 8 mps 750 mmHg 93%
    02:00 +7°C° 0.9 mm 8 mps 750 mmHg 92%
    03:00 +8°C° 0.9 mm 7 mps 751 mmHg 91%
    04:00 +8°C° 0.4 mm 7 mps 751 mmHg 92%
    05:00 +8°C° 0.4 mm 7 mps 751 mmHg 93%
    06:00 +8°C° 0.4 mm 7 mps 752 mmHg 93%
    07:00 +7°C° 0.9 mm 8 mps 752 mmHg 93%
    08:00 +7°C° 0.9 mm 8 mps 753 mmHg 94%
    09:00 +7°C° 0.9 mm 8 mps 753 mmHg 94%
    10:00 +7°C° 0.4 mm 8 mps 754 mmHg 91%
    11:00 +7°C° 0.4 mm 8 mps 755 mmHg 89%
    12:00 +9°C° 0.4 mm 8 mps 755 mmHg 86%
    13:00 +7°C° 0.1 mm 8 mps 756 mmHg 84%
    14:00 +7°C° 0.1 mm 8 mps 756 mmHg 81%
    15:00 +7°C° 0.1 mm 8 mps 757 mmHg 79%
    16:00 +7°C° 0.1 mm 8 mps 756 mmHg 80%
    17:00 +7°C° 0.1 mm 8 mps 756 mmHg 81%
    18:00 +7°C° 0.1 mm 8 mps 756 mmHg 82%
    19:00 +7°C° 0.7 mm 9 mps 756 mmHg 85%
    20:00 +7°C° 0.7 mm 10 mps 755 mmHg 87%
    21:00 +8°C° 0.7 mm 11 mps 754 mmHg 90%
    22:00 +7°C° 0.4 mm 12 mps 753 mmHg 87%
    23:00 +7°C° 0.4 mm 13 mps 752 mmHg 84%

    Day after tomorrow, 27 April, Saturday

    Time Temperature Precipitation Wind Pressure Humidity
    00:00 +5°C° 0.4 mm 14 mps 751 mmHg 82%
    01:00 +5°C° 1 mm 15 mps 751 mmHg 84%
    02:00 +5°C° 1 mm 15 mps 751 mmHg 86%
    03:00 +5°C° 1 mm 15 mps 750 mmHg 89%
    04:00 +5°C° 0.5 mm 15 mps 751 mmHg 89%
    05:00 +5°C° 0.5 mm 15 mps 752 mmHg 89%
    06:00 +5°C° 0.5 mm 15 mps 753 mmHg 89%
    07:00 +5°C° 0.3 mm 14 mps 754 mmHg 88%
    08:00 +5°C° 0.3 mm 14 mps 756 mmHg 88%
    09:00 +5°C° 0.3 mm 14 mps 757 mmHg 88%
    10:00 +5°C° 0.2 mm 14 mps 758 mmHg 84%
    11:00 +7°C° 0.2 mm 13 mps 759 mmHg 81%
    12:00 +7°C° 0.2 mm 13 mps 760 mmHg 77%
    13:00 +8°C° 0 mm 12 mps 761 mmHg 73%
    14:00 +8°C° 0 mm 12 mps 762 mmHg 69%
    15:00 +9°C° 0 mm 11 mps 763 mmHg 65%
    16:00 +9°C° 0 mm 10 mps 764 mmHg 67%
    17:00 +8°C° 0 mm 9 mps 764 mmHg 69%
    18:00 +9°C° 0 mm 8 mps 765 mmHg 70%
    19:00 +8°C° 0 mm 7 mps 766 mmHg 73%
    20:00 +5°C° 0 mm 6 mps 766 mmHg 75%
    21:00 +5°C° 0 mm 5 mps 767 mmHg 77%
    22:00 +5°C° 0 mm 5 mps 767 mmHg 80%
    23:00 +5°C° 0 mm 4 mps 768 mmHg 83%

    28 April, Sunday

    Time Temperature Precipitation Wind Pressure Humidity
    00:00 +4°C° 0 mm 4 mps 768 mmHg 85%
    01:00 +4°C° 0 mm 4 mps 768 mmHg 87%
    02:00 +4°C° 0 mm 3 mps 768 mmHg 88%
    03:00 +4°C° 0 mm 3 mps 768 mmHg 89%
    04:00 +4°C° 0 mm 3 mps 768 mmHg 90%
    05:00 +4°C° 0 mm 3 mps 768 mmHg 90%
    06:00 +5°C° 0 mm 2 mps 768 mmHg 90%
    07:00 +7°C° 0 mm 3 mps 768 mmHg 83%
    08:00 +9°C° 0 mm 3 mps 768 mmHg 76%
    09:00 +11°C° 0 mm 3 mps 768 mmHg 69%
    10:00 +12°C° 0 mm 3 mps 768 mmHg 68%
    11:00 +13°C° 0 mm 4 mps 768 mmHg 67%
    12:00 +13°C° 0 mm 4 mps 768 mmHg 65%
    13:00 +14°C° 0 mm 4 mps 767 mmHg 66%
    14:00 +14°C° 0 mm 4 mps 767 mmHg 67%
    15:00 +14°C° 0 mm 5 mps 766 mmHg 68%
    16:00 +13°C° 0 mm 4 mps 766 mmHg 72%
    17:00 +13°C° 0 mm 4 mps 766 mmHg 75%
    18:00 +12°C° 0 mm 4 mps 766 mmHg 78%
    19:00 +10°C° 0 mm 4 mps 766 mmHg 83%
    20:00 +9°C° 0 mm 3 mps 766 mmHg 88%
    21:00 +7°C° 0 mm 3 mps 766 mmHg 93%
    22:00 +7°C° 0 mm 2 mps 766 mmHg 94%
    23:00 +7°C° 0 mm 2 mps 765 mmHg 94%

    29 April, Monday

    Time Temperature Precipitation Wind Pressure Humidity
    00:00 +6°C° 0 mm 2 mps 765 mmHg 94%
    01:00 +6°C° 0 mm 2 mps 765 mmHg 93%
    02:00 +7°C° 0 mm 1 mps 765 mmHg 93%
    03:00 +7°C° 0 mm 1 mps 764 mmHg 93%
    04:00 +8°C° 0 mm 1 mps 764 mmHg 92%
    05:00 +8°C° 0 mm 1 mps 765 mmHg 91%
    06:00 +8°C° 0 mm 1 mps 765 mmHg 90%
    07:00 +10°C° 0 mm 1 mps 765 mmHg 85%
    08:00 +10°C° 0 mm 2 mps 765 mmHg 80%
    09:00 +13°C° 0 mm 2 mps 765 mmHg 76%
    10:00 +13°C° 0 mm 2 mps 765 mmHg 75%
    11:00 +14°C° 0 mm 2 mps 766 mmHg 74%
    12:00 +14°C° 0 mm 2 mps 766 mmHg 72%
    13:00 +15°C° 0 mm 2 mps 766 mmHg 71%
    14:00 +15°C° 0 mm 2 mps 766 mmHg 69%
    15:00 +16°C° 0 mm 2 mps 766 mmHg 67%
    16:00 +15°C° 0 mm 1 mps 766 mmHg 70%
    17:00 +15°C° 0 mm 1 mps 766 mmHg 74%
    18:00 +15°C° 0 mm 1 mps 766 mmHg 77%
    19:00 +13°C° 0 mm 1 mps 766 mmHg 81%
    20:00 +12°C° 0 mm 1 mps 766 mmHg 86%
    21:00 +10°C° 0 mm 1 mps 767 mmHg 90%
    22:00 +10°C° 0 mm 1 mps 767 mmHg 91%
    23:00 +10°C° 0 mm 1 mps 767 mmHg 92%

    30 April, Tuesday

    Time Temperature Precipitation Wind Pressure Humidity
    00:00 +9°C° 0 mm 1 mps 767 mmHg 94%
    01:00 +8°C° 0 mm 2 mps 767 mmHg 94%
    02:00 +8°C° 0 mm 2 mps 767 mmHg 94%
    03:00 +8°C° 0 mm 2 mps 767 mmHg 95%
    04:00 +8°C° 0 mm 2 mps 767 mmHg 95%
    05:00 +8°C° 0 mm 2 mps 767 mmHg 95%
    06:00 +9°C° 0 mm 2 mps 767 mmHg 95%
    07:00 +10°C° 0 mm 2 mps 767 mmHg 89%
    08:00 +13°C° 0 mm 2 mps 766 mmHg 83%
    09:00 +15°C° 0 mm 2 mps 766 mmHg 77%
    10:00 +15°C° 0 mm 2 mps 766 mmHg 75%
    11:00 +16°C° 0 mm 2 mps 766 mmHg 72%
    12:00 +16°C° 0 mm 2 mps 766 mmHg 70%
    13:00 +16°C° 0.1 mm 2 mps 765 mmHg 73%
    14:00 +15°C° 0.1 mm 1 mps 765 mmHg 77%
    15:00 +15°C° 0.1 mm 1 mps 765 mmHg 80%
    16:00 +15°C° 0.1 mm 1 mps 765 mmHg 83%
    17:00 +14°C° 0.1 mm 2 mps 764 mmHg 85%
    18:00 +14°C° 0.1 mm 2 mps 764 mmHg 88%
    19:00 +13°C° 0 mm 2 mps 764 mmHg 87%
    20:00 +12°C° 0 mm 3 mps 765 mmHg 87%
    21:00 +11°C° 0 mm 3 mps 765 mmHg 87%
    22:00 +10°C° 0 mm 4 mps 765 mmHg 87%
    23:00 +8°C° 0 mm 5 mps 765 mmHg 86%
    Show more